Location: Boiro
(42.6475°N, 8.8834°W)
Time: 15:52:47
(UTC+02:00)

Explorer 7 - Pass Details

Date: 05 July 2022
Orbit: 482 x 668 km, 50.3° (Epoch: 15 August)

Event Time Altitude Azimuth Distance (km) Brightness Sun altitude
Rises 01:29:58 0° 273° (W) 3,007 10.8 -22.6°
Reaches altitude 10° 01:32:30 10° 282° (WNW) 2,093 10.1 -22.7°
Maximum altitude 01:36:59 36° 349° (N) 1,049 8.8 -22.9°
Drops below altitude 10° 01:41:22 10° 56° (ENE) 2,051 9.9 -23.2°
Sets 01:43:50 0° 65° (ENE) 2,938 10.7 -23.3°
